Showing default

A-SEANSAT-PG1, 57197

Orbit data source: Space-Track

A-SEANSAT-PG1, 57197 is a payload satellite owned by ANGKASA-X (MY) in SSO that was launched on Tue, 27 Jun 2023 UTC via a SOYUZ-2-1B launch vehicle from the Vostochny Cosmodrome (VOSTO). Payload-class satellites include a variety of spacecraft equipped with specific instruments for various scientific and technological missions. These include communications satellites like Starlink; space stations such as the ISS; scientific satellites like the Hubble; Earth observation satellites from companies like Planet Labs, Umbra, and HawkEye 360; GPS; miniature CubeSats for education and research; and military/defense satellites.

Loading next visibility...
Identifier
57197, 2023-091AH
Orbit
SSO
Country
Flag of MYMY / MALA
Related business
Manufacturer
ANGKASA-X
Mission
Operational Commercial Communications
Bus & Motor
CUBESAT 6U, Unknown motor
Mass
10 kg wet, 10 kg dry
Launch date (UTC)
2023-06-27 (3 years ago)
Launch vehicle
SOYUZ-2-1B
Launch site
Vostochny Cosmodrome (VOSTO)
Object type
Payload
Rocket body
Debris
Shape & HBR
Box, 0.1 m
Radar Cross Section
0.080 m², Medium (>0.1 m² and < 1m²)

Expand to show TLE details & history
Last TLE update: 7 hours ago

TLE from 7 hours ago
0 A-SEANSAT-PG1
1 57197U 23091AH  26162.80243669  .00017132  00000-0  47809-3 0  9994
2 57197  97.5088 232.2692 0008504 101.0156 259.2045 15.36773280163880
Epoch: 2026-06-11T19:15Z
TLE epoch observation values (Epoch: 2026-06-11T19:15:30.530Z)
Latitude
0.00002°
Longitude
43.25098°
Altitude
459.862 km
Speed
7.636 km/s
True Right ascension
15h 29m 04s
True Declination
0° 00' 00"
Sunlit
Object was in full shadow at epoch
Visualization orbit readout
Latitude
Unknown
Longitude
Unknown
Altitude
Unknown
Speed
Unknown
Apparent Right ascension
Unknown
Apparent Declination
Unknown
Sunlit
N/A
Visualization observer readout
Local Sidereal Time
12:54:48
Azimuth
Unknown
Elevation
Unknown
Doppler factor
Unknown
Orbital elements
Apogee altitude
458.415 km
Perigee altitude
446.798 km
Semi-major axis
6,830.743 km
Eccentricity
0.00085
Inclination
97.5088°
RAAN
232.2692°
Arg. of periapsis
101.0156°
True anomaly
259.1088°
Mean anomaly
259.2045°
Eccentric anomaly
259.15665°
Mean motion
3.84451 °/min
Orbital period
93.64 mins
BSTAR
0.00047809
Loading maneuver chart data...
Computing Atmospheric mass density...
Loading historical data...
Loading historical data...
Loading historical data...
Loading historical data...
Loading historical data...
Loading historical data...
Loading historical data...

Documentation

Showing up to 5 results
|